Hourly Data Report for September 22, 2017

All times are specified in Local Standard Time (LST). Add 1 hour to adjust for Daylight Saving Time where and when it is observed.

KOUCHIBOUGUAC CS
NEW BRUNSWICK

46°47'00.000" N
65°01'00.000" W
21.00 m
8102328
71670
AKC

Download Data

Hourly Data (September 2017)
Hourly Data Report for September 22, 2017
Temp Definition
°C
Dew Point Temp Definition
°C
Rel Hum Definition
%
Wind Dir Definition
10's deg

Wind Spd Definition
km/h
Visibility Definition
km
Stn Press Definition
kPa
Hmdx Definition


Wind Chill Definition


Weather Definition


TIME
00:00 4.3 4.0 98   0   102.17     LegendNANA
01:00 3.5 3.3 98 0 1   102.19     LegendNANA
02:00 2.7 2.5 99 16 2   102.19     LegendNANA
03:00 2.0 1.8 99 18 1   102.13     LegendNANA
04:00 1.6 1.4 99 16 4   102.13     LegendNANA
05:00 1.2 1.0 99 22 1   102.11     LegendNANA
06:00 0.7 0.5 99 0 1   102.14     LegendNANA
07:00 1.9 1.7 99   0   102.18     LegendNANA
08:00 7.5 7.3 99 29 2   102.19     LegendNANA
09:00 12.7 10.3 86 27 2   102.21     LegendNANA
10:00 16.5 11.2 71 20 4   102.12     LegendNANA
11:00 18.4 10.0 58 14 4   102.07     LegendNANA
12:00 19.0 7.8 48 7 3   102.02     LegendNANA
13:00 20.9 6.4 39 12 3   101.95     LegendNANA
14:00 21.6 12.7 57 11 5   101.89     LegendNANA
15:00 21.7 12.6 56 14 6   101.82     LegendNANA
16:00 21.8 12.3 55 15 7   101.78     LegendNANA
17:00 20.3 11.0 55 13 6   101.75     LegendNANA
18:00 15.9 11.2 74 15 4   101.72     LegendNANA
19:00 13.0 8.4 73 15 6   101.70     LegendNANA
20:00 13.2 8.3 72 16 8   101.69     LegendNANA
21:00 10.2 8.5 89 21 3   101.64     LegendNANA
22:00 9.0 8.2 95 33 2   101.68     LegendNANA
23:00 8.4 7.6 95 30 1   101.64     LegendNANA

Notes on Data Quality.

Legend

  • E = Estimated
  • M = Missing
  • NA = Not Available
  • ‡ = Partner data that is not subject to review by the National Climate Archives
Date modified: